Probability
6 6 9 11 8 3 1 0 0 0 0 0 0 0 0 0 0 0 0 0 1 2 2 1 0 1 4 6 5 3 1 0 0 0 1 0 0 0 0 0 0 0 0 1 3 4 4 3 2
6 8 11 11 7 2 0 0 0 0 0 0 0 0 0 0 0 0 0 0 0 1 1 1 1 1 3 5 5 4 2 1 1 1 2 1 1 1 1 2 1 1 1 1 3 4 3 3 3
8 11 14 11 5 1 0 0 0 0 0 0 0 0 0 0 0 0 0 0 0 0 0 1 3 2 2 5 6 5 5 3 2 2 3 3 3 3 4 4 3 2 2 2 3 3 3 3 3
13 16 15 9 3 0 0 0 0 0 0 0 0 0 0 0 0 0 0 0 0 0 0 2 4 3 3 4 4 5 6 4 2 3 5 5 4 4 5 4 3 3 2 3 3 3 2 2 4
19 18 12 5 1 0 0 0 0 0 0 0 0 0 0 0 0 0 0 0 0 0 0 1 4 5 4 3 3 4 5 4 2 3 4 5 4 4 4 3 3 3 2 1 2 2 1 2 4
21 15 8 2 0 0 0 0 0 0 0 0 0 0 0 0 0 0 0 0 0 0 0 1 3 4 4 3 3 4 5 4 2 2 3 4 5 5 4 3 4 3 1 0 0 1 1 2 3
17 11 4 1 0 0 0 0 0 0 0 0 0 0 0 0 0 0 0 0 0 1 1 1 1 2 3 3 4 4 4 4 2 2 3 4 6 7 6 5 4 2 1 0 0 0 1 2 4
10 6 2 0 0 0 0 0 0 0 0 0 1 1 1 1 1 0 0 0 0 1 2 1 0 0 1 2 3 3 3 3 3 3 3 4 6 7 6 5 3 1 0 0 0 1 1 3 5
4 3 1 0 0 0 0 0 0 0 1 1 2 2 2 2 1 0 0 0 0 1 1 1 0 0 0 1 2 2 3 3 3 4 4 3 4 4 3 2 1 0 0 0 1 2 3 4 5
2 1 0 0 0 0 0 0 0 0 1 3 3 3 3 2 0 0 0 0 0 0 0 1 1 0 0 1 2 1 2 3 4 4 4 4 3 2 1 1 1 1 1 1 3 4 4 5 4
1 0 0 0 0 0 0 0 0 0 1 3 4 4 3 2 1 0 1 1 1 1 0 1 2 1 1 2 2 1 2 3 4 5 6 7 6 4 3 3 3 2 2 3 4 4 4 4 4
0 0 0 0 0 0 0 0 0 0 1 3 4 5 4 3 1 1 1 2 2 2 1 1 2 2 2 2 1 1 2 3 4 6 8 9 8 6 6 6 4 3 3 4 5 5 5 4 3
0 0 0 0 0 0 0 1 0 0 1 2 4 5 4 4 3 2 2 1 1 3 3 2 3 4 4 2 1 0 1 3 5 7 9 8 8 8 8 8 6 4 4 4 5 5 5 4 3
0 0 0 1 2 1 1 1 0 0 0 1 3 4 4 4 5 4 4 3 2 2 4 4 5 6 6 4 2 1 1 2 5 8 10 9 9 11 12 10 8 6 6 5 5 4 3 3 2
0 0 1 3 4 4 3 2 1 1 2 2 2 2 3 4 4 6 7 6 4 5 6 6 6 7 8 7 5 2 0 1 4 7 10 10 11 13 14 11 9 8 7 6 5 3 2 1 1
0 0 0 2 5 5 4 3 3 3 5 5 3 2 2 4 5 6 7 7 7 9 9 8 7 7 8 10 8 4 2 2 4 6 8 10 12 14 13 10 9 9 7 6 6 5 4 3 2
0 0 0 1 3 4 3 3 3 5 6 7 5 3 3 5 6 7 7 7 10 13 13 11 9 8 10 11 11 8 6 5 5 7 9 10 11 11 11 9 8 7 5 5 5 6 6 6 7
0 0 0 0 1 2 3 2 3 4 5 5 5 4 4 6 8 9 8 7 11 17 19 15 11 11 13 12 12 11 9 8 8 9 11 11 10 9 9 9 8 5 3 4 5 6 8 9 9
1 1 1 1 2 2 3 2 3 4 4 5 7 8 6 6 9 11 10 9 13 22 25 21 15 14 16 15 13 13 12 11 10 9 10 10 10 9 9 11 10 6 4 4 5 6 7 8 7
0 0 1 2 3 2 2 3 4 5 5 6 9 10 8 6 8 13 14 12 15 23 27 24 20 18 18 17 16 15 14 13 10 8 8 9 10 11 11 12 11 8 6 5 6 7 7 5 4
0 0 1 2 3 2 2 3 5 5 5 7 9 9 8 6 9 14 17 16 15 21 25 24 23 21 19 18 17 15 15 12 7 6 9 11 11 13 15 15 14 11 9 8 9 10 8 6 5
0 0 1 2 3 3 2 3 5 5 6 7 9 9 8 7 10 15 19 19 17 19 22 23 23 22 20 19 17 15 13 10 7 7 10 12 14 16 19 19 18 15 13 12 12 12 11 9 7
0 0 0 1 2 3 2 2 4 5 6 8 10 11 9 8 11 14 17 20 19 18 20 21 22 23 21 18 16 15 14 12 10 10 12 14 16 19 20 21 20 17 15 14 12 11 11 10 8
0 0 0 0 1 2 2 2 2 5 6 8 11 12 10 8 10 13 16 20 21 19 18 20 23 26 24 20 19 18 17 17 16 15 16 16 17 20 21 21 21 19 16 15 14 11 10 10 9
0 0 0 0 0 1 2 2 2 4 6 8 11 13 11 10 11 13 16 20 22 22 20 23 28 30 28 25 24 23 22 21 19 17 17 17 18 20 22 23 23 21 18 17 17 16 13 11 11
0 0 0 0 0 1 2 3 3 3 5 7 10 12 12 11 12 14 15 17 21 24 25 29 34 35 32 29 27 26 24 21 19 18 17 17 19 22 24 24 24 22 19 20 23 23 21 18 17
1 1 0 0 0 1 3 4 4 4 4 6 8 10 9 9 11 14 14 14 17 22 26 31 39 43 39 32 27 26 24 20 18 18 18 18 20 24 27 26 25 23 21 22 26 28 29 27 25
0 0 0 0 0 1 2 3 3 4 4 5 7 7 7 7 9 13 14 14 16 20 25 31 40 48 46 40 33 28 25 22 19 19 19 20 23 28 29 28 26 25 25 26 27 28 30 30 28
0 0 0 0 0 0 1 1 2 4 6 6 7 7 7 8 10 12 13 14 16 20 25 31 39 47 50 48 41 34 30 27 22 20 21 23 27 29 28 28 28 29 29 29 28 26 26 27 26
0 0 0 0 0 0 0 0 1 4 7 9 8 7 8 9 11 13 13 13 17 21 26 31 36 43 50 51 45 37 34 31 25 22 23 26 28 28 27 28 31 32 32 31 29 26 24 25 24
Wind_Speed
10 11 9 5 4 2 8 12 12 11 11 10 10 11 15 14 11 8 6 6 9 10 10 9 8 8 7 6 5 5 5 5 4 5 5 6 6 6 6 7 7 7 7 7 7 7 7 7 6
10 11 8 4 3 4 10 10 11 11 10 9 10 13 14 14 12 9 7 7 9 11 9 8 8 8 7 6 6 6 5 5 5 6 6 6 6 6 6 6 7 6 7 6 6 6 6 6 6
12 12 6 2 3 8 9 9 9 10 9 10 11 13 12 11 11 8 6 7 9 11 10 9 9 8 7 7 6 6 6 5 5 5 5 5 6 6 6 6 6 6 6 6 5 5 5 5 5
8 7 5 1 6 9 10 8 9 10 10 11 10 11 12 10 8 8 7 8 9 10 11 10 9 8 7 7 7 6 6 5 5 5 6 5 5 6 6 6 5 5 5 5 5 5 5 5 4
8 5 2 3 7 10 10 9 10 10 10 11 12 13 12 11 9 9 7 8 8 9 10 10 10 8 7 7 7 6 6 7 6 6 6 6 6 6 6 5 5 5 5 5 4 3 4 5 5
5 4 1 4 9 10 9 9 10 10 10 11 11 13 11 9 8 8 8 7 9 9 10 10 9 8 8 7 7 6 6 6 6 6 6 5 6 6 6 5 5 5 5 4 3 3 3 4 5
5 3 2 4 8 10 10 9 10 10 11 10 9 12 10 9 8 7 7 7 9 9 9 8 8 8 8 7 7 6 5 5 6 6 6 5 6 6 6 5 5 5 4 4 4 4 5 5 5
4 2 4 4 8 10 9 9 9 10 10 9 9 9 9 9 8 8 8 9 9 8 8 7 6 6 6 7 7 6 6 5 5 5 5 5 5 6 6 6 5 5 4 5 5 5 6 6 6
4 2 3 5 8 8 8 8 10 9 10 12 13 13 12 10 9 8 8 8 7 7 7 6 6 5 5 6 8 6 5 5 4 3 3 3 2 3 4 5 6 6 5 6 7 7 6 6 6
2 2 3 6 8 7 8 7 7 8 10 11 13 13 12 10 9 8 8 8 8 6 7 7 7 6 6 5 5 3 3 3 2 3 2 1 1 2 4 6 5 5 5 6 7 7 6 5 3
3 2 3 6 7 7 7 8 7 8 9 10 11 12 10 10 9 9 8 8 7 6 6 7 7 6 5 4 3 2 2 2 3 3 2 2 2 2 3 2 2 2 3 3 4 5 3 3 2
3 2 3 5 7 5 7 8 9 9 11 11 12 11 10 9 9 8 8 8 7 6 7 6 6 6 5 4 3 2 2 2 2 3 3 3 2 3 3 2 2 1 1 2 2 2 3 2 1
2 4 4 5 5 5 8 8 9 9 11 12 12 10 9 10 9 8 8 9 7 6 7 7 6 6 4 3 2 3 3 3 3 2 3 4 3 3 3 2 2 2 2 2 2 2 2 2 2
3 2 4 3 3 5 6 8 8 9 10 11 10 9 9 9 8 8 8 7 7 6 7 6 6 6 4 3 2 2 3 2 2 3 4 4 3 3 3 2 2 2 2 2 1 1 1 2 1
2 2 2 4 5 5 6 6 8 9 10 10 9 9 9 8 8 8 7 6 7 7 6 5 5 6 4 3 1 2 2 2 3 3 4 3 3 3 2 2 2 2 2 2 1 1 1 1 1
4 5 3 3 4 5 4 5 8 10 10 10 8 8 8 7 7 7 8 6 7 7 5 4 4 5 4 3 2 2 2 2 2 2 2 2 3 2 1 2 2 1 1 1 1 1 0 0 0
6 4 4 4 4 5 4 5 9 9 9 9 9 8 8 8 7 7 8 7 7 6 5 4 4 4 3 2 1 1 2 2 1 2 2 2 2 2 1 1 2 1 1 1 1 1 0 0 0
4 4 4 3 3 4 4 6 8 9 8 9 9 8 8 8 7 7 7 8 8 7 5 4 3 3 2 2 1 1 1 1 1 2 2 2 2 2 1 1 1 1 1 1 2 1 1 1 1
7 2 1 3 4 4 4 6 8 9 8 9 9 9 8 7 9 8 7 7 8 7 6 4 3 2 1 1 1 0 1 1 1 2 2 2 2 1 1 2 1 1 1 1 1 1 1 1 0
6 4 2 3 5 4 5 6 7 7 8 8 10 10 9 9 9 8 7 7 7 7 6 5 4 3 2 1 1 1 0 0 1 1 2 2 1 1 1 1 1 1 1 1 1 1 1 1 1
6 6 5 2 2 4 5 4 5 4 4 6 9 10 10 10 10 10 8 7 7 7 6 5 4 3 2 2 1 0 0 0 1 1 1 1 1 1 1 1 1 1 0 1 1 1 1 1 2
6 6 6 4 4 3 3 3 6 6 6 6 7 8 9 10 11 10 9 8 7 7 7 5 4 3 2 2 1 1 1 0 1 0 1 1 1 1 1 1 1 1 1 0 1 0 1 2 2
7 7 6 4 4 5 4 3 6 9 7 5 5 7 8 9 11 10 10 9 8 8 7 6 5 4 3 2 1 1 0 0 0 1 1 0 1 1 1 1 1 1 1 0 1 1 2 2 2
7 7 6 6 6 7 7 4 5 7 8 7 6 6 7 7 9 10 10 9 8 8 7 7 6 4 3 2 2 1 1 0 0 0 0 1 1 1 1 1 1 1 1 1 1 1 2 2 2
7 6 5 6 6 5 4 3 4 7 9 9 9 7 7 8 8 8 8 8 8 8 7 7 7 5 4 3 2 2 1 1 1 1 1 1 0 1 1 0 0 0 1 1 1 1 1 2 2
7 7 6 6 4 2 2 2 6 7 8 8 7 7 6 7 8 8 8 7 7 7 7 7 7 6 5 4 3 2 2 1 1 0 2 1 1 1 2 1 0 0 1 1 1 1 2 1 2
7 7 8 7 8 6 2 4 6 7 7 8 8 7 6 6 7 8 7 7 7 7 7 8 8 6 5 4 3 3 2 1 0 0 1 1 1 1 2 1 1 1 1 1 1 1 2 1 2
9 8 6 5 4 6 2 4 5 7 6 7 7 7 6 5 5 7 6 5 5 5 6 7 8 7 6 5 4 3 2 1 0 0 1 1 2 2 2 2 2 1 1 1 1 1 1 1 1
9 9 7 5 4 5 2 0 5 7 6 7 7 8 6 4 4 6 5 4 4 4 4 5 7 7 6 5 4 2 3 2 1 1 1 1 1 1 1 1 2 2 1 1 1 2 2 2 2
7 8 8 5 3 4 3 1 3 5 4 7 8 8 6 4 5 5 5 5 4 3 3 4 5 6 6 5 4 3 3 3 2 1 1 0 0 0 1 1 1 2 2 1 1 2 2 2 2
Wind_Direction
189 205 210 232 246 249 47 51 49 49 52 52 52 57 58 49 50 74 90 88 94 96 98 92 80 76 73 74 70 63 68 68 75 97 111 113 110 110 114 119 119 121 123 128 130 131 131 131 135
212 213 223 240 281 50 56 52 53 52 58 61 61 63 65 63 66 85 86 88 96 100 96 89 92 83 77 74 68 67 71 74 83 96 107 113 112 113 115 121 123 123 122 126 131 131 132 134 136
238 237 253 242 26 52 60 60 61 64 62 66 68 61 56 62 66 81 93 95 97 101 98 98 102 94 85 77 69 71 77 80 91 107 112 116 117 116 117 119 123 125 123 127 132 137 141 142 144
240 234 234 337 48 61 68 66 65 66 61 62 68 74 65 58 70 88 96 95 93 98 104 108 107 101 92 82 74 77 81 79 92 112 122 121 124 122 117 118 122 123 124 126 130 141 150 152 151
236 255 253 65 65 70 69 66 66 64 62 68 76 84 80 73 81 90 88 89 92 94 105 113 110 106 100 89 82 81 83 89 97 108 119 119 118 122 125 127 129 128 125 125 128 143 160 160 162
263 264 325 69 78 78 73 69 70 65 68 73 81 88 85 88 85 86 82 83 88 87 95 111 115 113 105 99 93 85 85 92 104 114 118 121 122 125 129 133 137 131 131 136 140 151 166 179 182
247 292 10 58 84 77 71 67 67 70 62 62 74 87 95 93 93 92 89 80 80 82 90 106 116 122 112 108 103 98 96 99 106 114 122 127 134 140 143 140 141 141 145 151 157 170 183 188 191
254 325 13 51 81 80 79 76 73 73 69 60 69 86 101 107 107 96 89 80 72 73 77 89 103 112 119 118 113 116 114 111 111 112 126 137 144 154 157 148 154 160 163 166 172 182 187 189 197
269 12 21 47 75 90 89 90 90 87 85 72 71 86 104 115 111 101 92 87 79 74 75 69 70 73 87 104 117 125 122 115 118 118 138 158 169 158 153 148 159 170 174 179 183 188 189 195 204
118 58 36 57 77 91 93 90 100 103 91 89 90 97 111 116 106 98 93 85 77 67 69 70 71 62 69 78 103 106 97 105 100 83 80 121 103 96 99 123 154 163 167 173 180 185 189 200 205
94 83 52 66 81 83 89 87 78 92 92 93 105 112 114 110 107 101 97 93 90 80 69 65 73 67 62 69 81 84 82 90 91 81 67 75 79 86 96 114 137 156 158 162 164 174 181 185 191
136 100 67 74 81 81 81 79 74 75 90 101 106 112 115 111 105 106 105 99 99 92 81 75 74 71 59 59 59 78 83 89 81 79 49 68 69 61 75 82 85 115 104 125 131 152 164 169 169
89 110 96 81 81 90 87 88 88 94 105 107 111 114 114 110 109 104 101 101 99 96 90 82 77 71 62 57 31 57 62 65 69 70 59 57 69 69 70 71 64 75 96 116 130 138 143 148 169
35 79 119 128 142 122 112 111 111 112 116 118 122 125 120 109 109 105 104 105 105 99 96 94 91 89 74 66 46 49 66 68 65 65 71 65 67 71 75 73 66 63 82 90 96 110 140 135 149
58 305 207 173 173 132 121 116 118 133 132 130 133 129 119 117 116 114 111 110 107 102 95 98 105 97 87 75 55 71 74 72 69 69 75 69 71 70 77 69 71 61 77 92 104 57 100 136 160
251 224 220 198 172 161 179 126 133 143 144 141 142 135 130 125 129 125 120 117 106 101 98 90 92 99 96 81 44 49 47 60 74 80 85 82 84 79 65 68 72 55 63 89 112 105 64 69 149
246 217 202 183 177 161 157 143 141 150 150 144 145 144 142 139 137 128 131 124 115 110 110 100 86 88 91 96 85 80 75 54 70 83 87 97 93 84 71 76 68 71 78 49 65 95 57 331 122
249 206 188 174 171 146 136 147 147 154 155 152 154 151 150 147 144 135 135 128 123 120 117 115 111 106 107 101 99 89 88 84 93 95 84 83 89 77 61 91 78 56 76 45 41 38 329 276 284
286 260 184 177 165 145 152 154 151 153 167 165 164 156 152 148 143 137 138 135 131 127 124 121 127 132 131 101 98 97 110 107 110 115 107 93 83 67 64 43 50 63 75 54 43 12 317 279 315
290 294 262 188 158 163 155 156 148 167 182 167 162 159 158 155 145 144 144 140 137 136 136 146 154 147 152 147 160 179 228 188 115 88 103 105 92 74 83 90 65 63 78 40 335 314 310 318 342
272 284 281 248 179 198 180 146 137 174 184 171 165 165 162 159 154 153 153 155 150 145 148 147 145 144 160 167 170 132 150 58 69 81 94 107 113 104 66 56 56 30 114 166 245 286 293 293 292
272 271 275 276 276 252 199 173 172 179 195 180 172 170 165 160 155 156 157 159 155 150 146 138 139 142 153 159 173 205 169 135 119 116 103 119 113 110 120 106 69 338 327 102 280 179 298 289 294
275 284 293 286 269 275 241 209 167 166 175 176 181 167 159 159 157 159 159 159 158 153 151 150 145 149 153 165 175 223 251 131 95 60 85 188 154 145 122 142 156 219 267 205 302 350 315 316 326
271 282 284 273 260 255 237 227 152 160 156 164 170 155 149 149 149 151 153 153 156 157 156 153 146 149 154 170 176 189 223 318 36 337 304 262 173 148 147 171 185 218 248 246 256 270 291 300 309
258 268 270 264 240 238 205 202 136 143 145 154 158 149 149 148 142 142 147 156 159 161 159 151 150 160 173 179 181 176 216 216 206 276 247 269 304 100 83 68 161 251 258 254 261 258 275 284 297
251 256 258 277 288 296 226 155 121 122 126 129 127 133 147 139 139 141 148 154 161 164 160 153 155 166 175 180 185 172 199 235 180 331 315 336 354 53 65 39 59 331 296 299 302 288 268 270 287
262 260 258 267 277 270 194 106 116 137 135 131 128 132 129 124 137 142 147 157 163 165 167 164 158 165 175 178 184 179 192 226 7 240 288 7 19 47 56 16 8 358 339 335 326 303 304 329 290
252 265 269 266 278 284 198 166 165 155 144 130 121 116 111 120 134 137 143 148 155 159 166 167 162 163 167 175 187 176 174 184 208 60 62 33 24 31 28 10 8 12 3 342 316 305 298 285 282
236 251 262 278 289 284 286 12 127 149 149 134 120 112 118 125 125 131 133 135 137 143 150 159 163 159 167 177 172 164 163 166 155 133 70 61 38 13 354 347 343 337 345 343 327 308 329 330 315
259 263 266 265 275 294 284 243 122 128 146 130 118 113 104 96 107 109 127 129 132 136 138 144 158 160 165 162 160 171 155 152 154 164 149 144 134 302 320 334 331 322 345 330 323 320 349 339 343